Flag for Canada Weather past 2 weeks in Pond Inlet, Nunavut, Canada

Now
-6 °F

Clear.


Feels Like: -20 °F
Forecast: -9 / 10 °F
Wind: 7 mph from South

Location: Pond Inlet

Current Time: Apr 25, 2015 at 10:21:00 PM

Latest Report: Apr 25, 2015 at 10:00 PM


Visibility: 9 mi

Pressure: 30.60 "Hg

Humidity: 84%

Dew point: -9 °F

Location of Pond InletLocation

Historic Weather in Pond Inlet — Graph

°F

Pond Inlet temperature yesterday

Maximum temperature yesterday: 0 °F (at 2:00 PM)
Minimum temperature yesterday: -11 °F (at 2:00 AM)
Average temperature yesterday: -6 °F

Past Weeks' High & Low Weather Summary

 TemperatureHumidityPressure
High1 °F (Apr 21, 12:00 PM)92% (Apr 24, 3:00 AM)30.94 "Hg (Apr 24, 3:00 AM)
Low-27 °F (Apr 10, 10:00 PM)61% (Apr 13, 1:00 AM)29.38 "Hg (Apr 15, 1:00 AM)
Average-11 °F76%29.95 "Hg
* Reported Apr 10 9:00 PM — Apr 25 9:00 PM, Pond Inlet, Weather by CustomWeather, © 2015

Note: Actual official high and low records may vary slightly from our data, if they occured in-between our weather recording intervals... More about our weather records

Advertising

Pond Inlet weather history for previous 24 hours

 ConditionsComfort  
Time TempWeatherWind HumidityBarometerVisibility
9:00 PM
Sat, Apr 25
-2 °FSunny.5 mph77%30.62 "Hg9 mi
8:00 PM0 °FSunny.7 mph78%30.63 "Hg9 mi
7:00 PM-2 °FSunny.5 mph84%30.65 "Hg9 mi
6:00 PM1 °FSunny.6 mph78%30.66 "Hg9 mi
5:00 PM1 °FScattered clouds.No wind78%30.67 "Hg30 mi
4:00 PM1 °FPartly sunny.2 mph71%30.69 "Hg30 mi
3:00 PM1 °FPassing clouds.2 mph71%30.70 "Hg30 mi
2:00 PM1 °FPassing clouds.No wind78%30.71 "Hg30 mi
1:00 PM-2 °FSunny.5 mph77%30.72 "Hg9 mi
12:00 PM-2 °FSunny.5 mph77%30.73 "Hg9 mi
11:00 AM-2 °FSunny.5 mph71%30.75 "Hg9 mi
10:00 AM-2 °FSunny.5 mph71%30.76 "Hg9 mi
9:00 AM-6 °FSunny.6 mph77%30.76 "Hg9 mi
8:00 AM-8 °FSunny.3 mph77%30.77 "Hg9 mi
7:00 AM-6 °FSunny.No wind70%30.78 "Hg9 mi
6:00 AM-9 °FSunny.3 mph77%30.78 "Hg9 mi
5:00 AM-8 °FSunny.2 mph70%30.79 "Hg9 mi
4:00 AM-8 °FSunny.3 mph77%30.80 "Hg9 mi
3:00 AM-11 °FSunny.3 mph76%30.81 "Hg9 mi
2:00 AM-6 °FClear.3 mph70%30.81 "Hg9 mi
1:00 AM-6 °FClear.No wind70%30.81 "Hg9 mi
12:00 AM-9 °FClear.6 mph70%30.82 "Hg9 mi
11:00 PM
Fri, Apr 24
-9 °FClear.3 mph77%30.82 "Hg9 mi
10:00 PM-2 °FClear.No wind77%30.84 "Hg9 mi
Weather by CustomWeather, © 2015

See weather overviewHow to use our weather pages